Location: ?????????
(38.5999°N, 22.7695°E)
Time: 10:17:22
(UTC+00:00)

H-2A R/B - Pass Details

Date: 23 May 2024
Orbit: 732 x 832 km, 98.2° (Epoch: 18 June)

Event Time Altitude Azimuth Distance (km) Brightness Sun altitude
Rises 02:18:50 0° 20° (NNE) 3,379 6.4 -9.5°
Reaches altitude 10° 02:21:19 10° 26° (NNE) 2,445 5.7 -9.1°
Maximum altitude 02:26:29 44° 98° (E) 1,140 3.3 -8.2°
Drops below altitude 10° 02:31:37 10° 170° (S) 2,423 4.4 -7.4°
Sets 02:34:03 0° 177° (S) 3,344 5.0 -7.0°
